Theta_e
342 341 338 333 332 330 324 319 318 320 319 320 319 318 319 319 318 319 319 319 319 317
341 336 330 330 328 325 323 322 320 319 317 318 317 317 317 317 318 319 319 318 319 318
332 328 326 326 321 322 320 318 316 316 315 313 315 315 315 315 317 318 317 317 319 318
325 326 324 323 322 319 317 315 313 313 312 311 312 313 314 315 315 316 317 319 318 317
320 319 319 317 317 316 314 313 311 311 310 310 309 311 313 314 315 316 317 318 317 315
316 315 313 313 313 314 312 311 310 310 309 309 310 311 313 314 315 317 319 318 315 315
315 314 314 315 314 312 311 309 309 309 308 309 309 311 312 314 315 318 318 319 316 315
314 315 315 313 312 311 309 308 307 307 307 308 307 306 312 314 315 317 316 315 314 314
316 315 313 312 310 309 307 307 306 305 305 305 303 297 300 309 315 314 313 311 313 313
314 313 311 311 310 308 306 306 304 304 305 303 302 296 296 302 314 313 310 308 308 308
312 312 312 311 308 307 305 303 302 302 303 303 299 294 295 299 310 308 306 307 306 306
313 312 311 310 309 306 305 303 302 302 302 303 301 294 294 301 308 307 305 304 300 303
313 312 311 310 308 306 305 304 303 301 302 297 302 292 293 298 306 306 304 302 301 295
311 313 312 309 306 304 303 303 303 301 301 301 298 299 293 293 304 303 302 301 300 298
Wind_Speed
18 11 9 10 9 9 10 10 13 8 5 4 4 5 4 3 3 4 4 5 5 3
12 11 11 11 10 7 11 11 11 10 8 7 6 5 2 3 3 3 4 4 4 4
10 13 12 11 13 13 10 11 11 11 10 6 6 3 3 2 2 3 2 3 5 4
13 15 14 13 13 13 12 10 10 10 10 6 5 4 3 3 4 5 4 4 4 4
14 15 15 14 14 13 13 11 9 9 9 7 6 5 4 4 4 3 3 3 4 5
15 14 14 14 13 13 13 12 10 9 8 8 6 5 3 4 2 0 1 3 5 5
14 14 15 14 13 13 12 11 11 10 9 7 6 5 3 1 2 1 3 5 6 5
14 16 16 14 13 13 12 11 10 9 8 7 6 5 2 2 2 3 5 6 5 6
16 15 15 14 13 12 11 10 9 9 9 8 6 8 6 2 3 5 6 6 6 6
15 14 14 13 12 11 11 10 10 9 8 9 9 12 11 7 5 6 7 7 7 7
14 13 13 12 11 11 10 9 9 9 9 9 10 13 11 7 7 7 7 8 8 8
13 13 12 12 10 9 9 9 9 8 10 9 10 13 14 9 6 7 9 9 11 9
13 13 11 11 10 9 8 9 7 9 9 8 8 13 13 10 5 7 5 6 7 13
11 12 11 11 9 8 8 7 7 8 7 9 10 10 13 13 7 6 6 6 6 8
Wind_Direction
142 155 147 139 143 134 133 136 119 119 127 107 75 75 68 104 94 82 82 74 58 63
152 141 128 122 108 95 114 120 117 125 116 100 88 80 77 64 68 60 55 66 71 64
113 113 106 108 107 109 107 113 116 120 110 104 92 83 66 86 89 104 85 82 87 69
111 115 106 114 116 114 118 112 110 110 106 112 100 83 100 105 116 97 89 105 110 102
109 113 114 112 114 118 113 104 103 96 96 96 84 80 108 104 91 104 135 146 124 67
109 104 102 109 116 113 111 104 94 88 78 70 62 68 74 75 96 172 91 69 83 49
107 108 110 111 107 99 91 87 80 67 65 66 61 56 52 131 166 130 79 92 64 39
106 112 110 104 95 89 85 85 86 88 85 86 69 35 344 167 135 87 83 66 44 40
111 108 102 101 98 94 92 91 90 83 81 78 65 6 5 359 89 83 59 44 31 21
109 107 106 105 104 100 93 89 81 76 75 65 46 11 15 345 69 59 50 38 25 23
114 115 116 112 106 100 92 86 78 70 65 64 45 17 11 351 68 66 54 45 30 30
120 119 119 114 111 107 98 83 72 61 55 51 43 15 17 6 51 60 54 54 39 28
124 121 120 118 110 102 95 86 77 64 52 46 37 30 20 5 40 57 67 63 55 48
107 117 122 115 111 104 92 80 73 67 53 41 33 39 23 15 45 32 37 32 30 34